Flag for U.S.A. Weather past 2 weeks in Boston, Massachusetts, U.S.A.

Now
70 °F

Scattered clouds.


Feels Like: 74 °F
Forecast: 62 / 71 °F
Wind: 15 mph from East

Location: Logan International Airport

Current Time: Aug 23, 2014 at 3:13:12 PM

Latest Report: Aug 23, 2014 at 2:54 PM


Visibility: 10 mi

Pressure: 30.11 "Hg

Humidity: 71%

Dew point: 60 °F

Location of BostonLocation

Historic Weather in Boston — Graph

°F

Boston temperature yesterday

Maximum temperature yesterday: 72 °F (at 2:54 PM)
Minimum temperature yesterday: 63 °F (at 5:54 AM)
Average temperature yesterday: 67 °F

Past Weeks' High & Low Weather Summary

 TemperatureHumidityPressure
High84 °F (Aug 11, 3:54 PM)97% (Aug 13, 7:54 AM)30.15 "Hg (Aug 13, 7:54 AM)
Low59 °F (Aug 19, 5:54 AM)28% (Aug 8, 4:54 PM)29.60 "Hg (Aug 13, 7:54 PM)
Average69 °F67%29.97 "Hg
* Reported Aug 8 1:54 PM — Aug 23 1:54 PM, Boston, Weather by CustomWeather, © 2014

Note: Actual official high and low records may vary slightly from our data, if they occured in-between our weather recording intervals... More about our weather records

Advertising

Boston weather history for previous 24 hours

 ConditionsComfort  
Time TempWeatherWind HumidityBarometerVisibility
1:54 PM
Aug 23
72 °FPartly sunny.13 mph68%30.11 "Hg10 mi
12:54 PM70 °FBroken clouds.10 mph71%30.11 "Hg10 mi
11:54 AM70 °FBroken clouds.12 mph71%30.12 "Hg10 mi
10:54 AM71 °FBroken clouds.14 mph61%30.12 "Hg10 mi
9:54 AM68 °FScattered clouds.14 mph65%30.12 "Hg10 mi
8:54 AM68 °FScattered clouds.12 mph65%30.12 "Hg10 mi
7:54 AM64 °FScattered clouds.7 mph81%30.12 "Hg10 mi
6:54 AM61 °FPassing clouds.7 mph90%30.12 "Hg10 mi
5:54 AM61 °FPartly cloudy.6 mph90%30.11 "Hg10 mi
3:54 AM63 °FPassing clouds.9 mph87%30.09 "Hg10 mi
3:00 AM64 °FMostly cloudy.7 mph88%30.09 "Hg10 mi
1:54 AM64 °FMostly cloudy.8 mph87%30.10 "Hg10 mi
12:54 AM64 °FPassing clouds.9 mph87%30.10 "Hg10 mi
11:54 PM
Aug 22
65 °FPassing clouds.10 mph87%30.10 "Hg10 mi
10:54 PM65 °FPassing clouds.8 mph87%30.10 "Hg10 mi
9:54 PM66 °FMostly cloudy.13 mph87%30.10 "Hg10 mi
9:04 PM66 °FMostly cloudy.10 mph88%30.11 "Hg10 mi
8:54 PM66 °FPassing clouds.10 mph87%30.10 "Hg10 mi
7:54 PM66 °FMostly cloudy.10 mph87%30.09 "Hg10 mi
6:54 PM67 °FBroken clouds.13 mph85%30.09 "Hg10 mi
5:54 PM69 °FBroken clouds.12 mph79%30.09 "Hg10 mi
4:54 PM69 °FBroken clouds.12 mph76%30.08 "Hg10 mi
3:54 PM70 °FMostly cloudy.13 mph73%30.08 "Hg10 mi
Weather by CustomWeather, © 2014

See weather overviewHow to use our weather pages